Location: Cucq
(50.4773°N, 1.6202°E)
Time: 06:31:14
(UTC+00:00)

Cosmos 1937 Rocket - Pass Details

Date: 07 August 2020
Orbit: 747 x 780 km, 74.0° (Epoch: 23 September)

Event Time Altitude Azimuth Distance (km) Brightness Sun altitude
Exits shadow 03:47:03 - 222° (SW) 2,539 5.5 -6.7°
Reaches altitude 10° 03:47:37 10° 224° (SW) 2,328 5.4 -6.6°
Maximum altitude 03:52:47 51° 300° (WNW) 975 3.9 -6.0°
Drops below altitude 10° 03:57:59 10° 17° (NNE) 2,344 6.9 -5.3°
Sets 04:00:27 0° 22° (NNE) 3,274 7.8 -5.0°
